| time (UTC) | temp F | wind direction | speed knots | gust knots | rain 1hr in | rain 24hr in | rain mn in | humidity % | barometer mb |
| 20260507171519 | 52 | 141 | 1.7 | 6.1 | 0.00 | 0.00 | 0.00 | 78 | 1015.8 |
| 20260507170025 | 53 | 120 | 0.9 | 4.3 | 0.00 | 0.00 | 0.00 | 78 | 1015.8 |
| 20260507164516 | 53 | 188 | 1.7 | 5.2 | 0.00 | 0.00 | 0.00 | 78 | 1016.0 |
| 20260507163015 | 53 | 195 | 1.7 | 4.3 | 0.00 | 0.00 | 0.00 | 77 | 1015.9 |
| 20260507161514 | 52 | 183 | 1.7 | 7.8 | 0.00 | 0.00 | 0.00 | 78 | 1015.9 |
| 20260507160016 | 53 | 93 | 2.6 | 6.1 | 0.00 | 0.00 | 0.00 | 76 | 1016.0 |
| 20260507154512 | 53 | 150 | 1.7 | 6.1 | 0.00 | 0.00 | 0.00 | 76 | 1016.0 |
| 20260507153018 | 54 | 229 | 1.7 | 4.3 | 0.00 | 0.00 | 0.00 | 75 | 1016.0 |
| 20260507151512 | 54 | 104 | 1.7 | 4.3 | 0.00 | 0.00 | 0.00 | 74 | 1016.0 |
| 20260507150011 | 55 | 82 | 1.7 | 8.7 | 0.00 | 0.00 | 0.00 | 74 | 1016.1 |
| 20260507144512 | 55 | 139 | 1.7 | 6.1 | 0.00 | 0.00 | 0.00 | 74 | 1016.1 |
| 20260507143009 | 55 | 79 | 4.3 | 10.4 | 0.00 | 0.00 | 0.00 | 73 | 1016.2 |
| 20260507141509 | 56 | 79 | 2.6 | 7.8 | 0.00 | 0.00 | 0.00 | 73 | 1016.2 |
| 20260507140008 | 56 | 126 | 2.6 | 6.1 | 0.00 | 0.00 | 0.00 | 71 | 1016.3 |
| 20260507134506 | 55 | 109 | 1.7 | 7.0 | 0.00 | 0.00 | 0.00 | 72 | 1016.3 |
| 20260507133006 | 55 | 134 | 3.5 | 7.0 | 0.00 | 0.00 | 0.00 | 72 | 1016.4 |
| 20260507131510 | 55 | 209 | 2.6 | 7.0 | 0.00 | 0.00 | 0.00 | 71 | 1016.3 |
| 20260507130004 | 55 | 253 | 1.7 | 7.8 | 0.00 | 0.00 | 0.00 | 71 | 1016.3 |
| 20260507124508 | 56 | 122 | 1.7 | 7.0 | 0.00 | 0.00 | 0.00 | 68 | 1016.4 |
| 20260507123002 | 55 | 92 | 1.7 | 9.6 | 0.00 | 0.00 | 0.00 | 69 | 1016.4 |
| 20260507121502 | 55 | 141 | 2.6 | 7.8 | 0.00 | 0.00 | 0.00 | 69 | 1016.4 |
| 20260507120005 | 55 | 236 | 1.7 | 6.1 | 0.00 | 0.00 | 0.00 | 69 | 1016.6 |
| 20260507114501 | 55 | 245 | 1.7 | 7.0 | 0.00 | 0.00 | 0.00 | 68 | 1016.6 |
| 20260507113102 | 56 | 120 | 0.9 | 7.8 | 0.00 | 0.00 | 0.00 | 66 | 1016.6 |
| 20260507111607 | 56 | 211 | 1.7 | 5.2 | 0.00 | 0.00 | 0.00 | 64 | 1016.8 |
| 20260507110110 | 55 | 191 | 1.7 | 7.8 | 0.00 | 0.00 | 0.00 | 63 | 1016.8 |
| 20260507104555 | 55 | 222 | 1.7 | 7.8 | 0.00 | 0.00 | 0.00 | 67 | 1016.8 |
| 20260507103055 | 55 | 170 | 3.5 | 8.7 | 0.00 | 0.00 | 0.00 | 64 | 1016.9 |
| 20260507101602 | 54 | 152 | 2.6 | 7.0 | 0.00 | 0.00 | 0.00 | 66 | 1016.9 |
| 20260507100049 | 53 | 311 | 2.6 | 6.1 | 0.00 | 0.00 | 0.00 | 69 | 1016.9 |
| 20260507094548 | 53 | 250 | 1.7 | 6.1 | 0.00 | 0.00 | 0.00 | 69 | 1017.0 |
| 20260507093051 | 52 | 313 | 2.6 | 7.0 | 0.00 | 0.00 | 0.00 | 70 | 1016.8 |
| 20260507091548 | 51 | 197 | 1.7 | 6.1 | 0.00 | 0.00 | 0.00 | 72 | 1016.8 |
| 20260507090039 | 51 | 118 | 0.9 | 6.1 | 0.00 | 0.00 | 0.00 | 72 | 1016.8 |
| 20260507084533 | 50 | 207 | 1.7 | 7.0 | 0.00 | 0.00 | 0.00 | 75 | 1016.9 |
| 20260507083033 | 50 | 198 | 0.9 | 4.3 | 0.00 | 0.00 | 0.00 | 77 | 1017.0 |
| 20260507081541 | 49 | 161 | 1.7 | 6.1 | 0.00 | 0.00 | 0.00 | 77 | 1017.0 |
| 20260507080027 | 49 | 128 | 0.9 | 4.3 | 0.00 | 0.00 | 0.00 | 79 | 1017.0 |
| 20260507074544 | 49 | 277 | 0.9 | 4.3 | 0.00 | 0.00 | 0.00 | 79 | 1016.9 |
| 20260507073024 | 48 | 140 | 0.9 | 4.3 | 0.00 | 0.00 | 0.00 | 79 | 1016.9 |
| 20260507071521 | 48 | 239 | 0.0 | 4.3 | 0.00 | 0.00 | 0.00 | 80 | 1017.0 |
| 20260507070022 | 47 | 98 | 1.7 | 4.3 | 0.00 | 0.00 | 0.00 | 79 | 1017.1 |
| 20260507064517 | 47 | 108 | 0.0 | 1.7 | 0.00 | 0.00 | 0.00 | 81 | 1016.9 |
| 20260507063023 | 47 | 90 | 0.0 | 2.6 | 0.00 | 0.00 | 0.00 | 81 | 1016.8 |
| 20260507061514 | 46 | 152 | 0.0 | 1.7 | 0.00 | 0.00 | 0.00 | 82 | 1016.7 |
| 20260507060011 | 45 | 349 | 0.0 | 1.7 | 0.00 | 0.00 | 0.00 | 84 | 1016.7 |
| 20260507054506 | 44 | 220 | 0.0 | 1.7 | 0.00 | 0.00 | 0.00 | 87 | 1016.5 |
| 20260507053003 | 41 | 233 | 0.0 | 0.9 | 0.00 | 0.00 | 0.00 | 90 | 1016.4 |
| 20260507051558 | 39 | 250 | 0.0 | 0.9 | 0.00 | 0.00 | 0.00 | 91 | 1016.4 |
| 20260507050058 | 37 | 238 | 0.0 | 0.0 | 0.00 | 0.00 | 0.00 | 91 | 1016.3 |
| 20260507044600 | 36 | 237 | 0.0 | 0.0 | 0.00 | 0.00 | 0.00 | 91 | 1016.3 |
| 20260507043054 | 35 | 252 | 0.0 | 0.0 | 0.00 | 0.00 | 0.00 | 91 | 1016.2 |
| 20260507041600 | 35 | 252 | 0.0 | 0.0 | 0.00 | 0.00 | 0.00 | 91 | 1016.3 |
| 20260507040051 | 35 | 252 | 0.0 | 0.0 | 0.00 | 0.00 | 0.00 | 92 | 1016.3 |
| 20260507034557 | 34 | 255 | 0.0 | 0.0 | 0.00 | 0.00 | 0.00 | 91 | 1016.4 |
| 20260507033053 | 35 | 255 | 0.0 | 0.0 | 0.00 | 0.00 | 0.00 | 91 | 1016.3 |
| 20260507031602 | 35 | 255 | 0.0 | 0.0 | 0.00 | 0.00 | 0.00 | 91 | 1016.4 |
| 20260507030053 | 34 | 255 | 0.0 | 0.0 | 0.00 | 0.00 | 0.00 | 91 | 1016.5 |
| 20260507024546 | 35 | 255 | 0.0 | 0.0 | 0.00 | 0.00 | 0.00 | 91 | 1016.6 |
| 20260507023042 | 35 | 255 | 0.0 | 0.0 | 0.00 | 0.00 | 0.00 | 91 | 1016.4 |
| 20260507021542 | 34 | 255 | 0.0 | 0.0 | 0.00 | 0.00 | 0.00 | 91 | 1016.4 |
| 20260507020042 | 35 | 255 | 0.0 | 0.9 | 0.00 | 0.00 | 0.00 | 90 | 1016.4 |
| 20260507014547 | 35 | 254 | 0.0 | 0.9 | 0.00 | 0.00 | 0.00 | 91 | 1016.2 |
| 20260507013043 | 35 | 255 | 0.0 | 0.9 | 0.00 | 0.00 | 0.00 | 91 | 1016.4 |
| 20260507011535 | 34 | 255 | 0.0 | 0.9 | 0.00 | 0.00 | 0.00 | 90 | 1016.5 |
| 20260507010036 | 35 | 255 | 0.0 | 0.9 | 0.00 | 0.00 | 0.00 | 90 | 1016.5 |
| 20260507004532 | 35 | 255 | 0.0 | 0.9 | 0.00 | 0.00 | 0.00 | 90 | 1016.4 |
| 20260507003029 | 36 | 256 | 0.0 | 0.0 | 0.00 | 0.00 | 0.00 | 90 | 1016.4 |
| 20260507001529 | 36 | 256 | 0.0 | 0.9 | 0.00 | 0.00 | 0.00 | 90 | 1016.5 |
| 20260507000035 | 36 | 256 | 0.0 | 0.9 | 0.00 | 0.00 | 0.00 | 90 | 1016.6 |
| 20260506234523 | 36 | 256 | 0.0 | 0.9 | 0.00 | 0.00 | 0.00 | 90 | 1016.6 |
| 20260506233021 | 36 | 223 | 0.0 | 0.9 | 0.00 | 0.00 | 0.00 | 90 | 1016.8 |
| 20260506231517 | 37 | 174 | 0.0 | 0.0 | 0.00 | 0.00 | 0.00 | 89 | 1016.8 |
| 20260506230014 | 38 | 174 | 0.0 | 0.0 | 0.00 | 0.00 | 0.00 | 89 | 1016.8 |
| 20260506224511 | 38 | 166 | 0.0 | 0.9 | 0.00 | 0.00 | 0.00 | 89 | 1016.7 |
| 20260506223009 | 38 | 166 | 0.0 | 0.9 | 0.00 | 0.00 | 0.00 | 88 | 1016.7 |
| 20260506221507 | 39 | 167 | 0.0 | 0.9 | 0.00 | 0.00 | 0.00 | 88 | 1016.7 |
| 20260506220015 | 39 | 167 | 0.0 | 0.0 | 0.00 | 0.00 | 0.00 | 87 | 1016.6 |
| 20260506214506 | 39 | 167 | 0.0 | 0.0 | 0.00 | 0.00 | 0.00 | 86 | 1016.6 |
| 20260506213002 | 40 | 167 | 0.0 | 0.0 | 0.00 | 0.00 | 0.00 | 86 | 1016.6 |
| 20260506211600 | 40 | 167 | 0.0 | 0.9 | 0.00 | 0.00 | 0.00 | 84 | 1016.6 |
| 20260506210058 | 42 | 97 | 0.0 | 0.9 | 0.00 | 0.00 | 0.00 | 80 | 1016.7 |
| 20260506204555 | 43 | 97 | 0.0 | 1.7 | 0.00 | 0.00 | 0.00 | 79 | 1016.6 |
| 20260506203055 | 44 | 91 | 0.0 | 2.6 | 0.00 | 0.00 | 0.00 | 78 | 1016.6 |
| 20260506201553 | 44 | 66 | 0.0 | 2.6 | 0.00 | 0.00 | 0.00 | 78 | 1016.5 |
| 20260506200052 | 44 | 92 | 0.9 | 3.5 | 0.00 | 0.00 | 0.00 | 78 | 1016.4 |
| 20260506194600 | 45 | 102 | 0.9 | 3.5 | 0.00 | 0.00 | 0.00 | 77 | 1016.3 |
| 20260506193102 | 45 | 89 | 0.9 | 3.5 | 0.00 | 0.00 | 0.00 | 77 | 1016.3 |
| 20260506191551 | 45 | 108 | 0.9 | 3.5 | 0.00 | 0.00 | 0.00 | 76 | 1016.4 |
| 20260506190051 | 46 | 79 | 0.0 | 4.3 | 0.00 | 0.00 | 0.00 | 77 | 1016.2 |
| 20260506184550 | 46 | 83 | 0.9 | 4.3 | 0.00 | 0.00 | 0.00 | 77 | 1016.2 |
| 20260506183050 | 46 | 123 | 0.9 | 4.3 | 0.00 | 0.00 | 0.00 | 76 | 1016.2 |
| 20260506181549 | 47 | 124 | 1.7 | 4.3 | 0.00 | 0.00 | 0.00 | 73 | 1016.1 |
| 20260506180100 | 47 | 77 | 2.6 | 4.3 | 0.00 | 0.00 | 0.00 | 71 | 1016.1 |
| 20260506174549 | 48 | 103 | 0.9 | 3.5 | 0.00 | 0.00 | 0.00 | 71 | 1016.1 |
| 20260506173051 | 48 | 136 | 0.9 | 4.3 | 0.00 | 0.00 | 0.00 | 71 | 1016.0 |